Regional Weather Roundup
Issued by NWS

Home | Current Version | Previous Version | Graphics & Text | Print | Product List | Glossary On
Versions: 1 2 3 4 5 6 7 8 9 10 11 12 13 14 15 16 17 18 19 20 21 22 23 24 25 26 27 28 29 30 31 32 33 34 35 36 37 38 39 40 41 42 43 44 45 46 47 48 49 50
000
ASUS43 KOAX 200010
RWRNE

WEATHER ROUNDUP FOR NEBRASKA
NATIONAL WEATHER SERVICE OMAHA NE
600 PM CST MON FEB 19 2018

NOTES: SATELLITE DATA IS BEING USED TO AUGMENT CLOUD COVER ABOVE
       12000 FEET.
       "FAIR" INDICATES FEW OR NO CLOUDS BELOW 12,000 FEET WITH NO
       SIGNIFICANT WEATHER AND/OR OBSTRUCTIONS TO VISIBILITY.


NEZ001>004-019>022-054>056-200100-
NEBRASKA PANHANDLE

CITY           SKY/WX    TMP DP  RH WIND       PRES   REMARKS
SCOTTSBLUFF    LGT SNOW   5  -2  72 N8        29.81R WCI  -8
6HR MIN TEMP:   5; 6HR MAX TEMP:   8; 6HR PCP:  0.01;

ALLIANCE       LGT SNOW   3  -2  79 NE10      29.78R WCI -12
6HR MIN TEMP:   2; 6HR MAX TEMP:   5; 6HR PCP: TRACE;

CHADRON        SNOW       2  -3  80 N15       29.92R VSB 1/2 WCI -17
6HR MIN TEMP:   2; 6HR MAX TEMP:   5; 6HR PCP: TRACE;

GORDON         LGT SNOW   2  -4  75 N13       29.81F WCI -15
6HR MIN TEMP:   2; 6HR MAX TEMP:   5;

KIMBALL        LGT SNOW   4  -1  81 N10       29.70R WCI -12
SIDNEY         LGT SNOW   6   1  80 N13       29.72R WCI -10
6HR MIN TEMP:   6; 6HR MAX TEMP:   9; 6HR PCP: TRACE;

$$

NEZ057>060-069>072-079>082-200100-
SOUTHWEST NEBRASKA

CITY           SKY/WX    TMP DP  RH WIND       PRES   REMARKS
NORTH PLATTE   LGT SNOW  11   4  73 NE10      29.82R WCI  -3
6HR MIN TEMP:  11; 6HR MAX TEMP:  14; 6HR PCP: TRACE;

IMPERIAL       FLURRIES  11   8  88 NE14      29.77R WCI  -5
6HR MIN TEMP:  11; 6HR MAX TEMP:  14; 6HR PCP: TRACE;

LEXINGTON      FLURRIES  15  10  80 N17       29.83S WCI  -2
MCCOOK         CLOUDY    16  10  77 N12       29.81R WCI   3
6HR MIN TEMP:  16; 6HR MAX TEMP:  17; 6HR PCP: TRACE;

OGALLALA       LGT SNOW  12   8  83 N13       29.79R WCI  -3
$$

NEZ005>010-023>029-035>040-094-200100-
NORTH CENTRAL NEBRASKA

CITY           SKY/WX    TMP DP  RH WIND       PRES   REMARKS
VALENTINE      LGT SNOW   7   0  73 N15G22    29.90R WCI -10
6HR MIN TEMP:   7; 6HR MAX TEMP:   9; 6HR PCP: TRACE;

AINSWORTH      LGT SNOW   8   6  91 N21       29.88S WCI -12
BROKEN BOW     LGT SNOW  11   6  81 N13       29.83R WCI  -4
6HR MIN TEMP:  11; 6HR MAX TEMP:  13; 6HR PCP: TRACE;

O`NEILL        LGT SNOW  11   8  88 N17       29.89S WCI  -6
ORD            LGT SNOW  12   8  84 N17       29.85R FOG     WCI  -5
6HR MIN TEMP:  12; 6HR MAX TEMP:  14; 6HR PCP: TRACE;

THEDFORD       CLOUDY     8   4  87 N13       29.85R WCI  -8
$$

NEZ041-046>049-061>064-073>077-083>087-200100-
SOUTH CENTRAL NEBRASKA

CITY           SKY/WX    TMP DP  RH WIND       PRES   REMARKS
GRAND ISLAND   LGT SNOW  15  11  83 N14       29.86R FOG     WCI   0
6HR MIN TEMP:  15; 6HR MAX TEMP:  17; 6HR PCP: TRACE;

AURORA         FLURRIES  16  12  83 N12       29.86R WCI   3
HASTINGS       LGT SNOW  15  11  83 N12       29.85R FOG     WCI   2
6HR MIN TEMP:  15; 6HR MAX TEMP:  18; 6HR PCP: TRACE;

HEBRON         CLOUDY    21  17  85 NE9       29.87R WCI  11
HOLDREGE       FLURRIES  15  12  88 N13       29.81F WCI   1
KEARNEY        FLURRIES  14  10  84 N16       29.84R WCI  -2
YORK           FLURRIES  18  18 100 N10G18    29.85R WCI   6
$$

NEZ011>018-030>034-042>045-200100-
NORTHEAST NEBRASKA

CITY           SKY/WX    TMP DP  RH WIND       PRES   REMARKS
NORFOLK        CLOUDY    17  15  92 N9        29.85R WCI   6
6HR MIN TEMP:  17; 6HR MAX TEMP:  18; 6HR PCP: TRACE;

ALBION         FLURRIES  15  11  84 N12       29.86R WCI   2
BLAIR          CLOUDY    22  20  93 N8        29.84R FOG     WCI  12
COLUMBUS       LGT SNOW  18  15  88 N13       29.87F FOG     WCI   5
FREMONT        CLOUDY    21  19  93 N6        29.87R WCI  13
TEKAMAH        CLOUDY    21  19  92 N15       29.88R WCI   8
6HR MIN TEMP:  21; 6HR MAX TEMP:  22; 6HR PCP: TRACE;

WAYNE          CLOUDY    19  18  96 N12       29.86S WCI   6
$$

NEZ050>053-065>068-078-088>093-200100-
SOUTHEAST NEBRASKA

CITY           SKY/WX    TMP DP  RH WIND       PRES   REMARKS
LINCOLN        FLURRIES  21  18  88 N14       29.87R WCI   8
6HR MIN TEMP:  21; 6HR MAX TEMP:  23; 6HR PCP: TRACE;

OMAHA EPPLEY   FLURRIES  23  20  88 N10       29.87R WCI  12
6HR MIN TEMP:  22; 6HR MAX TEMP:  25; 6HR PCP: TRACE;

BEATRICE       CLOUDY    24  22  91 N10       29.86R WCI  14
FALLS CITY     CLOUDY    26  23  88 NW12      29.84R WCI  16
6HR MIN TEMP:  26; 6HR MAX TEMP:  28;

NEBRASKA CITY  CLOUDY    24  24 100 NW10      29.84R FOG     WCI  13
PLATTSMOUTH    CLOUDY    24  22  96 N8        29.86R WCI  14
$$

NEZ044-045-051>053-067-200100-
OMAHA AREA

CITY           SKY/WX    TMP DP  RH WIND       PRES   REMARKS
OMAHA EPPLEY   FLURRIES  23  20  88 N10       29.87R WCI  12
6HR MIN TEMP:  22; 6HR MAX TEMP:  25; 6HR PCP: TRACE;

BLAIR          CLOUDY    22  20  93 N8        29.84R FOG     WCI  12
FREMONT        CLOUDY    21  19  93 N6        29.87R WCI  13
MILLARD        CLOUDY    24  21  89 NW7       29.86R WCI  16
PLATTSMOUTH    CLOUDY    24  22  96 N8        29.86R WCI  14
WAHOO          CLOUDY    21  19  90 N15       29.85S WCI   8
$$




USA.gov is the U.S. government's official web portal to all federal, state and local government web resources and services.